GFSSGP_prec_cloud_297.txt.gz
Cloud_Cover
100 100 100 100 100 100 100 100 100 81 20 100 5 19 92 8 5 35 6 62 71 31 6 8 100 100 89 100 100 89 8 5 5 6 5 100 99 5 1 4 1 0 1 43 5 0 2 2 0
91 100 100 100 100 100 100 91 100 17 87 10 35 24 5 54 5 55 26 76 99 100 84 77 100 100 100 100 100 96 5 71 40 82 99 90 7 17 0 1 2 6 6 55 100 2 2 0 0
100 100 96 100 100 68 55 61 99 77 67 9 4 5 5 5 20 69 5 38 40 89 100 100 100 100 100 100 47 5 49 98 100 85 100 95 5 5 5 5 6 16 67 99 49 0 0 0 4
100 100 100 99 28 100 37 100 100 15 86 6 5 2 0 5 44 51 89 78 78 5 28 8 15 100 84 100 38 30 42 100 100 100 100 5 0 61 100 100 82 15 6 81 0 0 0 7 5
100 100 100 100 74 86 94 44 5 14 5 0 0 0 5 2 0 51 6 5 5 5 5 5 64 16 5 55 13 77 82 91 87 4 2 8 5 4 0 0 0 0 0 0 0 0 2 5 2
100 100 99 75 57 57 66 62 9 0 1 0 0 0 14 0 0 4 4 11 12 5 16 100 56 22 31 98 100 38 70 64 54 3 0 0 0 0 0 0 0 0 0 0 0 0 0 0 2
94 100 100 94 38 100 82 86 100 100 0 0 0 0 23 97 5 42 11 12 7 38 20 5 20 97 100 90 18 6 18 0 0 0 0 0 0 0 0 0 0 0 0 0 0 0 5 5 1
10 88 4 99 75 77 33 98 99 0 0 0 0 0 80 41 0 9 11 0 5 5 5 5 79 99 63 63 84 82 0 0 0 0 0 0 0 0 0 0 0 0 0 0 0 0 0 0 0
48 82 97 25 1 79 98 34 90 80 0 0 0 0 0 100 1 96 14 33 5 8 5 5 9 5 76 91 41 0 0 0 0 0 0 0 0 0 0 0 0 0 0 41 90 4 3 1 5
17 21 100 91 1 74 36 0 19 35 80 100 0 0 19 7 0 0 87 5 12 2 5 5 5 5 21 0 41 82 0 0 0 0 0 0 0 0 0 0 0 0 52 38 70 17 2 3 29
88 100 91 30 30 16 5 6 0 43 9 5 0 0 0 0 0 0 1 3 2 0 0 1 0 0 0 1 5 68 12 48 15 31 0 11 0 0 0 0 0 41 0 2 100 100 100 100 100
38 58 16 54 92 2 3 4 16 0 0 0 0 0 0 0 0 0 0 0 81 0 0 0 0 53 0 5 81 29 4 54 91 18 100 100 65 80 0 42 100 89 4 31 100 100 100 100 100
100 45 53 95 65 12 100 66 100 9 0 0 0 0 0 0 0 2 3 0 0 6 3 0 16 82 0 95 29 0 0 49 92 4 61 100 1 92 1 14 95 49 93 91 100 100 100 100 100
100 92 22 0 41 90 25 86 99 84 0 0 2 0 5 18 6 52 100 72 5 3 37 0 59 0 0 0 14 1 0 0 95 12 2 0 22 20 0 0 1 1 16 100 100 100 100 100 100
100 100 11 27 40 32 52 57 58 7 1 0 0 30 50 46 3 0 1 0 4 4 5 4 3 5 0 0 0 0 0 0 0 4 0 0 0 0 70 21 59 30 1 66 100 100 100 100 100
100 100 88 100 90 77 24 23 8 5 33 5 3 27 100 100 1 96 28 1 2 2 4 5 2 5 0 0 0 0 1 0 0 0 0 0 0 0 10 0 2 91 0 1 38 96 100 100 100
100 100 100 100 100 92 90 25 0 4 5 5 9 98 100 6 94 62 55 38 0 0 4 4 2 3 2 2 0 0 0 1 0 1 0 0 0 0 0 0 0 0 0 0 0 0 87 100 100
100 100 100 100 100 100 100 63 4 1 29 16 18 57 2 3 10 40 3 0 0 0 0 0 5 5 5 5 0 0 0 27 84 79 4 3 0 0 0 0 0 0 0 0 0 0 0 22 11
100 100 100 100 100 100 100 100 100 100 100 100 100 99 76 11 18 5 5 5 0 0 8 73 0 0 5 5 0 0 24 18 22 9 45 100 0 0 0 0 0 18 14 11 0 0 0 0 0
100 100 100 100 100 100 100 100 100 100 100 100 100 100 100 100 88 93 58 5 5 15 93 5 0 0 0 32 95 34 55 22 67 96 87 68 7 35 10 24 75 39 35 0 3 0 0 0 0
100 100 100 100 100 100 100 100 100 100 100 100 100 99 100 100 84 80 32 5 5 32 14 25 11 5 45 100 100 100 100 95 15 91 97 87 98 100 100 100 100 100 91 1 0 58 99 3 0
98 100 92 100 100 100 100 100 100 100 100 100 81 100 100 97 100 87 100 95 82 92 2 1 13 3 1 98 100 100 100 100 93 77 100 100 100 100 100 100 100 100 100 100 54 5 85 2 0
100 100 92 96 67 100 66 47 81 100 100 100 100 96 100 100 87 40 63 86 5 11 0 0 0 0 8 100 100 100 100 100 100 100 21 99 100 100 100 100 100 100 100 100 100 96 96 12 1
4 13 2 27 96 100 95 71 63 100 100 100 99 94 100 100 100 100 98 100 32 79 5 5 96 100 100 5 98 100 100 100 100 100 77 30 99 100 100 100 100 100 100 100 100 100 100 96 22
0 0 0 0 0 18 99 44 71 100 100 100 100 75 100 100 100 100 100 100 100 40 62 28 100 100 18 4 24 59 100 100 100 99 81 84 63 98 100 100 100 100 100 44 99 98 100 100 100
0 2 28 2 22 92 71 76 50 80 40 63 100 100 100 100 100 100 100 100 45 85 11 2 58 48 49 6 4 39 100 99 90 94 98 98 78 100 100 82 100 100 100 100 100 100 70 73 22
0 0 1 0 0 91 100 18 5 92 77 42 5 78 100 100 97 100 100 100 100 98 8 4 11 44 40 10 94 6 74 91 100 100 99 82 74 89 79 69 100 100 100 92 100 98 95 100 84
0 1 4 4 4 86 99 18 5 67 2 4 3 3 39 90 96 35 63 52 42 86 99 97 100 99 58 5 5 22 5 4 16 75 34 38 64 98 100 62 77 91 100 100 100 84 74 44 6
2 5 0 0 2 13 79 100 72 2 7 91 97 89 89 92 49 11 1 5 18 32 100 94 100 100 96 81 24 19 50 72 87 32 34 77 17 93 96 75 68 80 56 100 100 76 29 11 69
0 0 4 2 5 36 5 28 11 85 98 61 100 100 100 97 79 84 44 25 25 25 64 59 23 95 90 95 97 100 100 80 96 65 98 96 100 81 98 100 58 99 100 77 100 100 5 39 99

GFSSGP_prec_cloud_303.txt.gz
Cloud_Cover
66 99 100 100 100 100 86 100 100 100 100 99 53 33 6 7 78 62 6 58 82 10 6 12 69 100 100 100 99 42 87 74 59 94 97 35 30 100 97 3 14 3 5 43 9 6 0 4 5
100 100 96 44 100 100 100 100 100 100 81 9 40 42 55 32 26 17 53 49 100 100 100 100 100 100 61 93 100 100 98 77 60 40 98 97 100 100 5 3 0 0 5 38 36 0 1 5 5
100 100 100 100 100 100 100 99 100 59 47 56 18 16 30 92 11 20 55 69 100 100 100 79 83 100 68 100 100 20 14 8 26 36 41 100 100 46 8 51 96 24 21 5 1 1 3 9 5
100 100 100 100 100 100 100 16 63 5 5 5 5 28 18 5 6 22 96 100 56 7 69 100 55 36 100 96 5 0 5 11 16 7 2 2 100 21 6 1 2 0 2 0 0 0 5 18 6
100 100 100 100 100 34 60 34 6 15 5 5 5 22 43 5 6 52 80 91 73 9 10 5 30 100 79 5 0 5 5 1 1 0 0 4 0 4 0 0 0 0 0 0 0 0 5 5 5
100 100 100 100 60 5 5 53 75 59 5 5 5 7 46 6 59 20 5 5 5 5 5 5 31 100 9 2 0 5 0 0 0 0 0 0 0 0 0 0 0 0 0 0 0 4 5 5 5
99 100 87 18 6 3 18 12 90 28 5 5 5 24 44 5 5 5 5 5 5 5 5 10 93 70 32 8 0 0 5 0 0 0 0 0 0 0 0 0 0 0 0 0 0 0 1 29 95
100 21 84 100 52 22 100 32 41 5 5 2 5 13 97 6 5 5 5 5 5 5 5 5 91 41 18 83 2 0 0 0 0 0 0 0 0 0 0 0 0 3 0 0 0 0 97 2 46
4 5 3 5 55 2 51 71 96 6 5 5 5 5 4 5 5 5 5 13 5 6 12 59 96 5 5 33 41 0 0 0 0 0 0 0 12 0 0 13 97 32 1 0 0 44 100 56 56
5 11 11 5 1 8 36 21 12 5 5 5 5 5 5 5 5 1 2 5 3 5 34 14 5 0 2 5 65 2 0 0 0 0 0 0 0 4 8 77 76 9 0 0 78 100 100 83 100
64 100 5 3 12 4 32 5 2 1 1 1 4 5 5 1 0 0 0 0 0 2 15 5 0 0 0 0 2 5 0 0 0 0 0 17 13 5 2 0 4 15 97 100 100 94 57 58 100
32 7 12 47 10 6 2 1 1 0 20 1 0 0 0 0 0 0 0 0 0 3 4 0 0 0 0 0 0 0 0 0 0 0 0 1 4 6 74 2 5 99 92 100 100 100 81 100 100
94 65 46 15 42 4 5 4 5 1 0 0 0 0 0 0 0 0 0 0 1 0 0 0 0 0 0 0 0 0 0 0 0 0 0 1 10 5 5 8 5 5 85 100 84 72 91 92 64
99 54 12 2 24 5 6 3 0 1 0 0 2 0 0 0 0 0 0 4 1 2 0 0 0 0 0 0 0 0 0 0 0 0 5 2 5 4 6 91 77 100 95 100 100 85 100 99 84
100 100 100 96 100 100 58 4 0 0 3 0 0 0 0 4 3 0 98 5 5 3 0 0 0 0 4 0 0 0 0 0 0 0 0 0 0 4 8 8 96 100 100 100 85 100 100 86 10
99 100 100 100 65 97 87 99 42 6 0 0 0 0 4 6 13 5 53 90 27 7 1 0 0 0 0 1 1 0 0 0 1 1 0 0 0 0 0 3 68 100 100 38 100 100 72 100 83
18 93 100 100 99 97 14 42 100 38 2 0 1 0 45 99 6 92 95 100 48 77 7 0 0 0 0 1 7 59 8 0 3 13 2 0 0 0 0 0 0 81 100 100 100 100 100 100 100
98 100 100 100 100 82 20 28 37 50 8 0 5 43 43 24 5 30 99 100 100 54 97 3 0 4 5 1 0 22 77 50 4 6 4 5 2 1 26 22 0 10 76 96 99 56 100 58 7
100 100 100 100 100 100 100 66 69 7 5 5 6 66 7 51 41 11 100 100 100 100 100 98 0 4 3 0 1 53 47 39 5 5 76 95 17 5 93 46 100 100 100 100 100 50 4 0 0
100 100 100 100 100 100 91 71 32 100 31 96 91 100 58 95 100 99 100 100 21 14 84 100 54 2 0 0 24 12 78 95 100 12 41 100 100 11 12 70 100 100 100 100 100 100 89 4 0
100 100 100 100 100 100 100 52 100 97 100 100 99 90 100 78 49 97 100 42 98 87 98 100 100 79 5 8 14 3 84 100 100 97 98 100 70 99 39 17 44 89 100 100 100 100 100 100 91
100 100 100 97 93 100 100 98 70 81 89 100 100 100 100 100 100 100 100 100 100 100 37 100 88 100 58 100 94 98 96 100 83 100 100 100 86 70 92 98 94 100 100 100 89 99 100 100 100
99 99 88 100 98 97 100 100 100 100 100 72 100 100 100 100 100 86 100 100 100 100 24 22 5 53 100 100 96 100 100 100 32 85 100 88 100 100 100 100 93 100 88 100 100 100 100 100 100
58 96 100 100 100 99 90 100 100 100 100 100 100 41 94 100 100 100 100 72 62 19 49 35 19 85 100 100 86 100 100 100 100 100 100 99 100 100 100 69 95 89 99 100 95 100 97 100 100
96 81 100 100 100 100 97 100 100 100 100 100 100 100 100 100 100 95 95 100 99 49 83 43 41 77 100 100 100 73 97 100 100 100 100 97 96 100 100 98 100 70 82 12 33 100 98 93 99
100 99 100 100 100 100 16 100 100 100 100 100 100 100 100 100 100 100 100 100 95 87 100 100 100 100 100 77 99 100 100 100 100 100 100 100 90 25 76 5 11 75 68 100 100 82 100 100 67
94 96 13 2 0 47 100 100 100 100 100 100 100 100 100 100 100 100 100 100 100 100 72 86 99 92 100 100 100 100 100 100 100 100 100 100 100 100 44 58 5 5 52 94 100 38 87 98 98
38 0 0 0 0 0 2 76 100 100 100 100 100 100 100 100 100 100 95 88 100 100 100 97 100 100 100 100 100 100 100 100 100 100 100 100 100 100 100 82 54 84 14 6 6 94 71 69 97
0 0 0 0 0 0 3 0 88 48 100 100 100 100 100 100 100 100 100 100 100 100 100 100 100 100 100 100 100 100 100 100 100 100 100 100 100 100 100 100 100 70 78 71 29 94 28 53 81
0 0 0 3 0 0 7 1 100 100 100 100 100 100 100 100 90 40 99 100 100 100 100 100 100 100 100 100 100 100 100 100 100 100 100 100 100 100 79 59 32 95 100 31 100 100 8 5 5

GFSSGP_prec_cloud_309.txt.gz
Cloud_Cover
100 22 8 41 38 62 98 29 100 6 26 5 5 29 73 50 28 86 95 33 95 42 36 99 99 72 58 97 92 97 100 98 90 32 17 5 6 85 5 9 13 0 2 0 0 25 0 2 1
22 86 46 49 83 100 100 88 5 11 5 5 50 6 26 49 96 98 71 94 91 99 86 62 23 83 100 87 89 55 100 100 64 70 14 71 69 100 5 4 3 4 1 0 1 0 0 1 3
52 92 100 100 100 100 100 93 84 77 5 5 8 6 20 5 82 61 89 16 25 72 49 9 90 100 89 6 10 8 77 67 100 100 100 100 100 100 21 13 15 2 6 1 0 0 5 5 4
30 42 76 100 100 100 100 78 34 24 5 5 5 0 5 48 22 61 7 5 5 24 30 50 100 23 5 12 5 10 11 1 1 76 51 100 100 100 1 10 0 0 0 0 0 4 2 5 0
53 65 100 100 100 21 5 5 5 5 5 6 4 30 5 53 23 5 5 5 5 44 84 98 81 4 0 0 0 0 8 0 0 6 14 9 14 55 0 0 0 0 0 0 3 5 5 4 3
59 99 89 40 6 5 5 5 5 1 0 2 0 3 49 33 42 5 5 5 5 44 14 77 6 2 0 0 5 0 0 1 0 6 4 0 1 0 0 0 0 0 0 0 5 5 1 5 5
100 100 51 11 5 5 5 5 1 0 0 2 0 4 66 10 7 5 5 5 5 40 30 21 2 0 0 0 12 0 0 0 0 0 0 0 0 0 0 0 0 0 4 3 5 3 2 5 5
97 100 4 5 5 5 5 4 0 0 0 0 5 2 24 5 5 5 5 5 24 32 9 5 2 35 21 0 0 0 0 0 0 0 0 0 0 0 0 1 66 100 89 96 0 0 0 2 5
56 20 5 7 27 51 5 2 0 0 0 0 0 0 1 5 7 3 5 5 25 9 5 5 0 19 4 0 0 0 0 0 0 0 0 0 0 0 0 4 14 5 32 23 97 54 11 5 0
5 5 5 9 50 5 3 2 0 0 0 1 0 0 0 7 6 0 3 4 4 5 5 0 0 0 0 0 1 0 0 0 0 0 0 0 0 0 0 38 5 4 7 6 6 25 99 5 5
0 1 2 5 5 5 0 0 0 0 0 0 0 0 0 1 1 0 2 0 5 5 5 0 0 0 0 0 0 0 0 0 0 0 0 0 0 0 4 14 5 3 6 19 76 84 64 97 89
4 20 11 5 5 3 0 0 0 0 3 0 2 0 0 0 0 0 0 0 5 5 0 0 0 0 0 0 0 0 0 0 0 0 0 0 0 0 5 12 1 5 24 97 96 76 71 53 52
5 4 4 35 0 0 0 0 0 0 0 0 0 0 0 0 0 0 2 0 0 0 0 0 5 0 0 0 0 0 0 0 0 0 0 5 4 5 5 12 14 57 68 80 100 73 94 78 77
0 0 5 71 47 5 2 0 0 0 0 0 0 0 13 68 0 1 5 0 0 0 0 0 0 0 0 0 0 0 0 0 0 0 0 0 0 4 5 32 14 5 99 46 100 38 26 35 47
2 1 5 21 1 4 5 0 0 2 4 3 5 4 0 5 0 0 1 5 0 0 0 0 0 0 0 0 0 5 5 2 1 0 0 0 1 2 0 5 5 14 5 88 77 95 98 13 1
1 1 4 7 14 5 8 30 11 44 44 86 8 5 5 1 0 0 0 4 5 0 0 0 0 0 0 1 0 0 4 38 19 5 1 0 0 0 0 0 3 41 41 68 28 35 25 78 89
5 3 5 0 4 54 57 3 31 7 10 5 35 38 38 8 16 3 2 0 0 1 1 0 0 0 0 0 4 2 0 6 97 100 58 42 22 3 0 0 0 0 16 63 20 80 6 9 29
79 30 61 19 5 4 18 95 5 35 5 67 64 100 45 100 81 16 3 0 0 1 5 0 1 0 0 5 3 32 11 96 11 46 97 100 100 100 44 61 98 96 100 100 88 9 5 4 9
82 77 37 100 72 26 5 5 58 5 53 52 76 100 100 5 51 29 89 7 0 34 25 5 0 5 5 5 5 0 4 7 99 20 5 100 77 39 99 100 81 96 100 100 100 80 67 44 22
76 100 100 83 81 33 9 17 5 25 50 34 60 100 100 100 97 30 21 30 5 20 27 48 16 8 29 24 6 1 0 2 19 95 64 100 100 100 53 16 56 98 89 100 75 11 50 100 100
69 82 100 96 100 100 99 100 99 15 100 39 45 44 100 100 5 100 51 40 5 14 75 90 95 82 22 89 24 4 0 21 49 63 23 87 99 99 100 100 100 100 56 41 94 96 100 92 29
99 96 88 99 100 100 100 100 100 100 99 68 21 96 100 100 32 99 25 32 12 7 5 24 98 100 68 47 5 22 5 13 83 18 96 63 75 100 7 98 27 50 91 65 43 100 97 99 100
98 97 67 81 100 99 100 100 100 100 100 100 82 82 47 76 92 47 52 5 10 15 5 5 5 5 40 88 37 99 97 100 100 100 100 100 100 100 100 38 74 32 51 17 45 98 21 50 50
1 5 95 100 98 95 100 100 100 100 100 100 100 100 100 100 99 100 100 74 43 41 79 9 11 8 58 75 63 91 98 100 100 100 100 100 100 100 100 100 100 82 90 24 5 36 51 18 6
5 43 67 61 100 40 85 100 100 100 100 100 100 100 100 100 100 100 100 100 100 100 99 100 96 82 75 100 100 100 100 100 100 100 100 100 100 100 100 100 100 95 94 81 56 19 5 5 5
26 100 98 4 10 100 80 100 100 93 100 100 100 100 100 100 100 100 100 100 100 100 97 100 100 96 100 100 100 100 100 100 100 100 100 100 100 100 100 100 100 100 100 98 100 90 5 5 5
5 4 5 5 5 88 100 100 100 100 100 100 100 100 100 100 61 85 99 100 100 100 79 84 100 100 100 100 100 100 100 100 100 100 100 100 100 100 100 100 100 100 100 77 96 54 38 6 78
5 3 78 86 22 5 3 0 31 83 89 95 100 100 100 100 100 100 100 100 100 100 100 100 100 100 100 100 100 100 100 100 100 100 100 100 100 100 100 100 100 100 100 100 98 100 35 47 100
0 0 0 0 0 0 0 0 0 0 0 6 97 100 100 100 100 100 100 100 100 100 100 100 100 100 100 100 100 100 100 100 100 100 100 100 100 100 100 100 100 100 100 100 100 100 100 90 75
0 0 0 0 0 0 0 0 0 0 2 44 100 100 100 100 100 100 100 100 100 100 100 97 100 100 100 100 100 100 100 100 100 100 100 100 100 100 100 100 100 100 100 100 94 82 100 100 59

GFSSGP_prec_cloud_312.txt.gz
Cloud_Cover
36 91 90 100 97 100 100 99 9 6 60 45 5 37 8 8 16 67 92 95 91 46 86 81 90 88 54 57 8 52 95 100 99 97 32 45 30 24 4 3 0 1 0 0 8 0 0 0 0
40 10 43 100 99 100 92 71 32 31 20 16 5 4 20 8 20 100 100 100 96 89 84 56 59 100 100 81 16 7 12 82 94 96 74 10 88 64 7 3 1 0 4 3 0 0 2 0 0
75 72 93 74 100 100 100 70 56 39 19 5 1 27 34 5 9 46 10 32 26 28 85 42 99 99 57 8 1 5 13 55 98 100 13 7 99 24 13 10 0 3 6 1 0 0 3 0 0
75 84 100 100 100 95 62 10 5 5 5 9 8 3 5 5 5 5 5 10 6 37 96 97 100 37 0 9 15 3 2 8 100 100 32 35 96 2 6 0 0 0 0 0 1 2 4 0 0
85 62 99 100 44 10 5 5 5 12 3 13 26 2 5 5 7 4 4 2 6 39 67 64 5 2 0 0 0 0 14 0 2 75 8 63 95 33 0 0 0 0 0 0 1 5 5 0 0
5 77 100 99 6 5 5 5 0 0 0 1 7 0 9 4 5 5 5 5 24 36 21 34 0 0 1 14 0 1 0 0 9 5 3 1 41 5 0 0 0 0 0 5 0 0 0 0 1
100 100 100 72 5 9 4 5 6 0 0 0 0 0 3 5 5 5 5 5 16 23 12 42 0 0 0 2 0 0 0 0 0 0 0 0 0 0 0 0 0 0 0 0 0 0 0 0 0
100 12 97 93 92 5 3 4 0 0 0 0 0 0 1 5 5 5 5 5 13 5 5 0 2 66 70 0 0 1 0 0 0 0 0 0 0 0 80 91 51 0 0 0 0 0 0 5 1
8 100 100 100 100 5 5 0 0 0 0 0 0 0 0 2 5 4 4 4 5 5 5 0 1 30 0 0 0 0 0 0 0 0 0 0 8 100 75 15 5 5 6 39 2 1 2 5 5
5 100 100 33 5 5 5 29 0 0 0 0 0 0 0 0 5 2 0 0 5 5 4 0 0 0 0 0 0 0 0 0 0 0 12 31 95 72 5 2 5 5 5 6 15 58 5 5 17
1 100 5 5 5 0 0 4 0 0 0 0 0 0 0 0 1 0 1 1 5 5 2 0 0 0 0 0 0 0 0 0 5 14 35 11 6 4 2 5 21 8 77 42 5 5 5 7 5
59 0 0 5 5 0 0 0 0 0 0 0 0 0 3 5 0 0 0 0 0 0 0 0 0 0 0 0 0 0 0 51 82 4 0 0 0 0 2 5 5 52 58 63 74 73 20 78 55
0 0 0 0 0 0 0 0 0 0 0 0 4 1 3 0 5 2 0 0 0 0 0 0 0 0 4 0 0 0 57 23 10 0 0 2 2 5 5 5 3 5 15 32 25 56 99 100 31
1 0 0 3 2 0 0 0 0 0 4 6 56 25 5 0 0 0 0 0 0 0 0 0 0 1 0 0 2 4 5 5 3 0 0 2 11 16 25 6 5 5 4 46 5 20 98 60 5
5 1 0 0 5 5 5 3 5 2 6 28 55 100 36 5 5 0 0 0 0 1 0 0 0 0 0 0 0 4 5 5 5 5 5 5 18 100 100 86 82 96 88 40 89 54 6 13 5
36 44 25 2 5 5 8 78 1 1 9 74 1 5 58 70 5 5 0 0 0 1 5 5 0 0 0 0 0 1 5 5 5 24 20 10 4 38 95 87 99 88 76 66 8 56 6 6 5
7 83 11 4 5 5 41 75 26 5 3 0 2 5 5 49 95 8 6 2 0 0 2 5 0 0 0 3 0 0 0 5 5 31 5 5 13 13 12 100 93 70 63 41 100 100 95 99 91
99 57 31 33 39 5 6 30 37 84 5 2 5 39 4 50 6 96 51 80 14 1 4 5 5 0 5 5 4 1 0 0 30 35 5 42 5 5 5 34 17 96 85 6 7 10 4 91 60
52 84 98 68 94 95 60 19 61 5 5 5 29 93 7 5 100 62 88 20 71 16 4 0 0 0 0 5 5 2 0 1 4 5 10 12 5 7 20 89 5 97 98 49 33 32 14 5 54
66 72 97 72 45 52 98 100 98 53 30 5 5 4 4 5 68 75 5 6 5 6 8 3 2 0 0 0 5 1 29 20 58 100 56 78 84 41 6 4 36 94 87 100 100 100 100 100 90
100 100 100 100 91 100 98 99 85 93 100 98 75 16 7 5 43 98 50 5 2 5 5 22 48 8 11 3 5 2 0 0 1 28 84 100 68 41 36 33 47 39 46 39 60 100 100 100 100
100 78 100 100 100 100 100 100 100 100 84 79 78 98 93 41 99 95 99 10 5 5 5 4 5 13 100 31 37 5 6 0 24 99 100 100 100 100 100 77 44 74 15 49 38 76 86 94 100
100 100 100 98 100 99 95 98 100 100 100 100 100 90 87 75 50 100 100 61 5 5 4 0 0 0 0 6 5 5 5 97 100 100 100 35 100 78 98 100 100 100 45 48 30 29 5 9 10
4 42 93 100 100 45 94 98 100 100 100 100 100 100 100 100 78 33 29 55 84 90 15 4 0 0 1 0 44 54 85 100 100 100 100 100 100 100 100 94 100 98 98 88 59 41 5 5 5
14 3 86 86 62 95 78 100 99 100 100 100 100 100 100 100 100 99 100 100 91 96 58 5 21 57 44 82 100 83 100 100 100 100 100 100 100 100 100 100 100 100 98 85 100 79 5 18 12
11 76 95 99 100 100 3 1 10 90 100 96 100 100 100 100 100 100 100 100 100 100 100 100 83 100 100 82 100 100 99 100 100 100 100 100 100 100 100 100 100 100 100 100 100 99 99 16 14
5 0 10 96 97 37 6 8 5 0 0 43 100 40 9 80 99 100 100 100 100 100 100 100 100 100 99 31 90 100 100 100 100 100 100 100 100 100 100 100 100 100 100 100 100 100 95 57 64
0 3 4 41 41 62 100 88 15 1 1 0 0 11 76 97 100 100 100 100 100 100 100 100 100 100 100 100 100 100 100 100 100 100 100 100 100 100 100 100 100 100 100 100 100 100 100 100 85
0 0 0 0 0 6 3 21 96 52 0 0 0 80 97 88 100 100 100 100 100 100 100 100 100 100 100 100 100 100 100 100 100 100 100 100 100 100 100 100 100 100 100 100 100 100 100 100 100
0 0 0 0 0 2 0 1 0 0 0 0 39 100 100 100 100 100 100 100 100 100 100 100 100 100 100 100 100 100 100 100 100 100 100 100 100 100 100 100 100 100 100 100 100 100 100 100 100

GFSSGP_prec_cloud_315.txt.gz
Cloud_Cover
22 11 60 99 94 100 100 48 97 71 88 100 76 99 32 100 100 74 22 94 100 100 73 61 50 38 53 88 84 28 21 54 72 100 5 3 84 7 5 7 0 0 0 0 0 0 0 0 0
95 15 54 46 100 100 100 89 100 98 100 24 2 53 54 7 5 35 80 46 88 78 84 42 84 57 68 27 6 12 87 18 64 5 9 8 85 5 2 4 6 0 2 0 0 5 0 0 0
5 6 98 98 85 100 24 100 97 47 5 7 26 66 8 5 5 5 6 34 67 100 81 88 54 85 48 16 5 48 100 73 44 77 5 34 100 7 9 0 0 0 0 0 2 4 2 0 0
63 99 73 100 90 100 97 22 64 55 76 56 43 0 5 5 25 14 28 26 30 86 93 89 96 21 0 1 11 70 5 73 75 100 5 16 23 1 0 0 0 0 2 0 0 0 0 0 0
10 53 100 100 99 60 85 96 100 100 86 84 64 0 1 26 10 20 4 6 35 90 90 14 13 8 0 2 1 6 0 52 100 50 16 73 28 1 0 0 0 0 0 0 0 0 0 0 0
50 100 100 100 100 100 96 98 100 83 82 18 4 1 20 26 3 4 5 13 78 97 70 2 0 0 2 0 11 9 8 7 36 17 80 98 5 0 0 0 0 0 0 0 0 0 0 0 2
100 100 98 84 100 100 98 49 96 34 6 23 0 6 10 6 2 5 5 22 50 14 3 19 0 0 0 3 0 0 0 12 4 0 0 0 0 0 0 0 0 0 0 0 0 0 0 0 4
96 100 91 71 100 99 6 32 0 48 7 0 0 1 4 0 0 5 5 5 5 5 7 0 33 61 32 0 0 0 0 0 0 0 0 0 0 0 0 0 0 0 1 0 5 0 5 4 0
89 99 40 76 99 64 2 1 0 0 0 0 3 0 0 0 0 2 3 4 5 5 0 0 29 26 14 0 0 0 0 0 0 0 0 8 77 79 5 1 5 5 3 4 2 3 0 5 43
99 66 35 90 100 86 76 70 0 0 0 0 0 0 0 0 0 4 1 1 5 5 0 0 0 0 0 0 0 0 0 0 0 2 37 55 19 5 0 2 5 5 3 5 5 5 4 2 26
67 92 100 86 99 56 72 55 0 1 20 4 0 0 0 0 0 0 0 1 5 3 0 0 0 0 0 0 0 0 0 0 1 61 32 26 29 0 16 11 5 5 5 21 25 8 82 7 5
99 51 92 84 86 56 90 0 32 76 58 1 0 0 0 0 0 0 0 0 0 0 0 0 0 0 0 0 0 0 0 28 93 19 9 5 81 8 25 83 7 9 52 12 5 69 62 7 10
100 37 66 49 42 10 0 0 0 5 4 5 5 5 1 1 0 0 2 0 0 0 0 0 0 1 0 5 6 0 5 15 32 2 0 5 29 27 70 30 77 24 15 40 22 17 100 96 16
16 84 25 4 1 0 3 0 19 5 5 5 5 5 5 8 12 3 0 0 1 4 0 0 0 0 0 18 0 1 3 13 20 17 52 39 5 32 100 72 95 92 43 68 29 5 9 81 5
37 60 41 4 2 0 11 2 57 5 4 5 5 5 5 16 9 7 0 0 5 3 5 0 0 0 0 16 0 5 1 4 5 5 5 5 6 16 100 100 100 100 100 93 36 5 10 5 8
75 73 100 5 6 4 50 100 4 0 4 5 2 0 3 4 58 5 0 5 0 3 5 4 0 0 0 0 0 1 6 75 14 2 5 3 5 5 12 22 94 100 100 100 100 98 87 100 92
100 100 86 9 9 15 35 94 5 5 54 28 11 8 5 6 62 5 10 4 2 3 0 2 2 0 0 0 0 0 7 1 62 13 1 3 4 4 3 4 27 13 90 100 100 72 51 94 96
94 100 100 100 35 13 37 33 100 13 12 16 48 42 35 17 24 35 73 18 37 5 2 0 0 1 0 4 0 0 0 0 10 52 66 48 3 4 4 7 13 53 46 25 98 100 54 27 32
100 51 46 98 25 14 59 100 100 54 80 99 72 5 5 73 34 23 99 88 86 19 5 5 0 0 0 5 4 4 1 2 3 24 28 75 33 19 74 5 6 27 84 70 72 100 100 72 51
93 98 86 12 11 6 42 100 100 91 5 66 12 11 6 11 27 58 46 70 98 64 6 4 5 5 5 35 20 3 0 2 0 30 100 69 100 100 94 32 10 21 39 40 99 92 100 100 100
91 36 88 84 42 5 77 32 30 94 5 5 29 19 76 73 72 39 76 60 96 100 26 1 1 5 5 5 7 5 0 0 2 44 92 96 100 100 100 99 82 6 5 60 100 79 100 100 100
100 100 100 100 28 90 100 100 54 7 91 85 33 29 47 70 62 64 16 37 73 84 93 17 6 0 1 0 8 96 93 63 77 96 100 100 100 100 100 40 100 65 39 85 100 100 100 100 100
100 59 99 100 93 57 52 21 100 100 26 84 73 100 100 100 100 98 71 8 23 99 99 93 0 7 4 0 6 81 100 100 100 100 100 100 100 90 100 95 43 30 63 61 95 25 23 36 55
6 81 96 100 66 80 64 90 81 100 100 100 100 100 99 100 100 100 100 76 28 24 60 100 57 4 20 29 78 100 100 100 100 100 100 100 100 100 100 80 64 14 43 60 22 5 5 20 32
2 11 91 100 37 100 100 90 100 68 87 68 30 99 100 100 100 100 100 100 99 100 100 100 90 46 85 100 83 100 90 82 89 84 100 100 100 100 100 100 100 100 72 97 100 100 90 94 88
86 44 92 80 79 100 100 100 100 100 2 5 24 22 9 94 100 100 100 100 100 100 100 54 100 71 61 94 81 93 99 62 51 56 86 100 100 100 100 100 100 100 100 100 100 100 100 100 100
5 29 87 99 82 21 60 100 100 85 0 0 0 0 54 100 56 23 98 98 100 100 100 100 100 100 100 100 100 100 100 100 96 100 100 100 100 100 100 100 100 100 100 100 100 100 100 100 100
0 0 11 94 74 30 17 34 74 100 86 5 0 0 0 0 3 58 89 100 92 94 94 100 100 100 100 100 100 100 100 100 100 100 100 100 100 100 100 100 100 100 100 100 100 100 100 100 100
0 0 0 1 30 40 32 100 90 98 49 14 0 12 49 62 98 56 90 100 100 100 97 52 74 97 100 100 100 100 100 100 100 100 100 100 100 100 100 100 100 100 100 100 100 100 100 100 100
0 0 1 5 22 34 16 79 0 0 0 0 17 47 75 100 100 100 99 100 100 100 99 100 76 99 95 68 97 98 100 100 100 100 100 100 100 100 100 100 100 100 100 100 100 100 100 100 100